Weather History for Heber, UT

Change the Weather History Date:

Thursday, December 5, 2013

  Actual Average (KPVU) Record (KPVU)
Temperature  
Mean Temperature -5 °F -  
Max Temperature 10 °F 38 °F 55 °F (1986)
Min Temperature -20 °F 24 °F 0 °F (2013)
Degree Days  
Heating Degree Days 70    
Moisture  
Dew Point -11 °F    
Average Humidity 76    
Maximum Humidity 92    
Minimum Humidity 52    
Precipitation  
Precipitation 0.00 in - - ()
Sea Level Pressure  
Sea Level Pressure 29.96 in    
Wind  
Wind Speed 1 mph (SE)    
Max Wind Speed 6 mph    
Max Gust Speed -    
Visibility 10 miles    
Events Snow    
Averages and records for this station are not official NWS values.
T = Trace of Precipitation, MM = Missing Value Source: NWS Daily Summary

Daily Weather History Graph

Daily Weather History Graph

Search for Another Location

Airport:

Trip Planner

Search our weather history database for the weather conditions in past years. The results will help you decide how hot, cold, wet, or windy it might be!

Date:

Astronomy

Dec. 05, 2013 Rise Set
Actual Time 7:33 AM MST 4:58 PM MST
Civil Twilight 7:03 AM MST 5:29 PM MST
Nautical Twilight 6:29 AM MST 6:03 PM MST
Astronomical Twilight 5:56 AM MST 6:36 PM MST
Moon 9:56 AM MST (12/5) 8:24 PM MST (12/5)
Length of Visible Light 10h 25m
Length of Day
9h 25m
Waxing Crescent, 11% of the Moon is Illuminated
Dec 5
Waxing Crescent
Dec 9
First Quarter
Dec 17
Full
Dec 25
Last Quarter
Jan 1
New

Hourly Weather History & Observations

Time (MST) Temp. Windchill Dew Point Humidity Pressure Visibility Wind Dir Wind Speed Gust Speed Precip Events Conditions
12:15 AM -7.6 °F - -13.0 °F 77% 30.01 in 10.0 mi Calm Calm - N/A   Clear
12:35 AM -9.4 °F - -14.8 °F 77% 30.01 in 10.0 mi Calm Calm - N/A   Clear
12:55 AM -9.4 °F -20.9 °F -14.8 °F 77% 30.00 in 10.0 mi SE 4.6 mph - N/A   Clear
1:15 AM -9.4 °F -22.7 °F -13.0 °F 84% 29.99 in 10.0 mi East 5.8 mph - N/A   Clear
1:35 AM -11.2 °F -24.8 °F -16.6 °F 77% 29.99 in 10.0 mi SE 5.8 mph - N/A   Clear
1:55 AM -9.4 °F - -14.8 °F 77% 30.00 in 10.0 mi Calm Calm - N/A   Scattered Clouds
2:15 AM -5.8 °F - -9.4 °F 84% 29.99 in 10.0 mi Calm Calm - N/A   Scattered Clouds
2:35 AM -14.8 °F - -20.2 °F 77% 29.99 in 10.0 mi Calm Calm - N/A   Clear
2:55 AM -13.0 °F - -16.6 °F 84% 29.99 in 10.0 mi Calm Calm - N/A   Mostly Cloudy
3:15 AM -16.6 °F -26.8 °F -22.0 °F 76% 29.99 in 10.0 mi East 3.5 mph - N/A   Scattered Clouds
3:35 AM -13.0 °F - -16.6 °F 84% 29.99 in 10.0 mi Calm Calm - N/A   Scattered Clouds
3:55 AM -14.8 °F - -18.4 °F 84% 29.99 in 10.0 mi Calm Calm - N/A   Scattered Clouds
4:15 AM -14.8 °F -24.8 °F -20.2 °F 77% 29.98 in 10.0 mi SSE 3.5 mph - N/A   Scattered Clouds
4:35 AM -18.4 °F -28.9 °F -23.8 °F 76% 29.97 in 10.0 mi East 3.5 mph - N/A   Clear
4:55 AM -16.6 °F - -22.0 °F 76% 29.97 in 10.0 mi Calm Calm - N/A   Clear
5:15 AM -16.6 °F - -22.0 °F 76% 29.97 in 10.0 mi Calm Calm - N/A   Clear
5:35 AM -20.2 °F -30.9 °F -27.4 °F 69% 29.97 in 10.0 mi East 3.5 mph - N/A   Clear
5:55 AM -14.8 °F - -22.0 °F 70% 29.97 in 10.0 mi Calm Calm - N/A   Clear
6:15 AM -18.4 °F - -23.8 °F 76% 29.97 in 2.5 mi Calm Calm - N/A Snow Light Snow
6:35 AM -16.6 °F - -22.0 °F 76% 29.97 in 10.0 mi Calm Calm - N/A   Clear
6:55 AM -18.4 °F - -23.8 °F 76% 29.97 in 10.0 mi Calm Calm - N/A   Clear
7:15 AM -16.6 °F -31.3 °F -22.0 °F 76% 29.98 in 10.0 mi ESE 5.8 mph - N/A   Clear
7:35 AM -14.8 °F - -18.4 °F 84% 29.98 in 10.0 mi Calm Calm - N/A   Clear
7:55 AM -16.6 °F - -23.8 °F 70% 29.98 in 10.0 mi Calm Calm - N/A   Clear
8:15 AM -14.8 °F - -18.4 °F 84% 29.99 in 10.0 mi Calm Calm - N/A   Clear
8:35 AM -13.0 °F - -18.4 °F 77% 29.99 in 10.0 mi Calm Calm - N/A   Clear
8:55 AM -13.0 °F - -18.4 °F 77% 30.00 in 10.0 mi Calm Calm - N/A   Clear
9:15 AM -7.6 °F - -13.0 °F 77% 30.00 in 10.0 mi Calm Calm - N/A   Clear
9:35 AM -4.0 °F - -7.6 °F 85% 30.00 in 10.0 mi Calm Calm - N/A   Clear
9:55 AM -4.0 °F - -7.6 °F 85% 30.00 in 10.0 mi Calm Calm - N/A   Clear
10:15 AM -0.4 °F - -5.8 °F 78% 30.00 in 10.0 mi Calm Calm - N/A   Clear
10:35 AM -0.4 °F -8.3 °F -4.0 °F 85% 30.00 in 10.0 mi West 3.5 mph - N/A   Clear
10:55 AM 1.4 °F - -4.0 °F 78% 29.99 in 10.0 mi Calm Calm - N/A   Clear
11:15 AM 1.4 °F - -2.2 °F 85% 29.99 in 10.0 mi Calm Calm - N/A   Clear
11:35 AM 3.2 °F - -2.2 °F 78% 29.97 in 10.0 mi Calm Calm - N/A   Clear
11:55 AM 5.0 °F - -0.4 °F 78% 29.97 in 10.0 mi Calm Calm - N/A   Clear
12:15 PM 5.0 °F - -2.2 °F 72% 29.95 in 10.0 mi Calm Calm - N/A   Clear
12:35 PM 5.0 °F - -4.0 °F 66% 29.94 in 10.0 mi Calm Calm - N/A   Clear
12:55 PM 5.0 °F - -5.8 °F 61% 29.93 in 10.0 mi Calm Calm - N/A   Clear
1:15 PM 8.6 °F - -4.0 °F 57% 29.93 in 10.0 mi Calm Calm - N/A   Clear
1:35 PM 10.4 °F - -4.0 °F 52% 29.92 in 10.0 mi Calm Calm - N/A   Clear
1:55 PM 10.4 °F - -4.0 °F 52% 29.91 in 10.0 mi Calm Calm - N/A   Clear
2:15 PM 8.6 °F - -5.8 °F 52% 29.91 in 10.0 mi Calm Calm - N/A   Clear
2:35 PM 8.6 °F - -4.0 °F 57% 29.91 in 10.0 mi Calm Calm - N/A   Clear
2:55 PM 10.4 °F - -4.0 °F 52% 29.91 in 10.0 mi Calm Calm - N/A   Clear
3:15 PM 8.6 °F - -4.0 °F 57% 29.91 in 10.0 mi Calm Calm - N/A   Clear
3:35 PM 10.4 °F - -2.2 °F 57% 29.91 in 10.0 mi Calm Calm - N/A   Clear
3:55 PM 8.6 °F - -4.0 °F 57% 29.92 in 10.0 mi Calm Calm - N/A   Clear
4:15 PM 5.0 °F - -4.0 °F 66% 29.92 in 10.0 mi Calm Calm - N/A   Mostly Cloudy
4:35 PM -0.4 °F -8.3 °F -7.6 °F 72% 29.92 in 10.0 mi ESE 3.5 mph - N/A   Mostly Cloudy
4:55 PM -4.0 °F - -9.4 °F 78% 29.92 in 10.0 mi Calm Calm - N/A   Scattered Clouds
5:15 PM -4.0 °F -12.4 °F -9.4 °F 78% 29.92 in 10.0 mi ESE 3.5 mph - N/A   Mostly Cloudy
5:35 PM -5.8 °F -14.5 °F -9.4 °F 84% 29.93 in 10.0 mi SSE 3.5 mph - N/A   Mostly Cloudy
5:55 PM -4.0 °F -12.4 °F -7.6 °F 85% 29.93 in 10.0 mi SSE 3.5 mph - N/A   Scattered Clouds
6:15 PM -4.0 °F -14.6 °F -9.4 °F 78% 29.94 in 10.0 mi SSE 4.6 mph - N/A   Scattered Clouds
6:35 PM -4.0 °F -12.4 °F -7.6 °F 85% 29.94 in 10.0 mi South 3.5 mph - N/A   Scattered Clouds
6:55 PM -5.8 °F -16.7 °F -9.4 °F 84% 29.95 in 10.0 mi SSE 4.6 mph - N/A   Clear
7:15 PM -5.8 °F -14.5 °F -9.4 °F 84% 29.95 in 10.0 mi SE 3.5 mph - N/A   Scattered Clouds
7:35 PM -5.8 °F - -9.4 °F 84% 29.95 in 10.0 mi Calm Calm - N/A   Scattered Clouds
7:55 PM -5.8 °F -14.5 °F -9.4 °F 84% 29.96 in 10.0 mi SE 3.5 mph - N/A   Mostly Cloudy
8:15 PM -4.0 °F - -7.6 °F 85% 29.96 in 10.0 mi Calm Calm - N/A Snow Light Snow
8:35 PM -5.8 °F - -9.4 °F 84% 29.96 in 10.0 mi Calm Calm - N/A Snow Light Snow
8:55 PM -5.8 °F - -7.6 °F 92% 29.97 in 5.0 mi Calm Calm - N/A Snow Light Snow
9:15 PM -5.8 °F - -9.4 °F 84% 29.97 in 10.0 mi Calm Calm - N/A Snow Light Snow
9:35 PM -4.0 °F - -7.6 °F 85% 29.97 in 10.0 mi Calm Calm - N/A   Overcast
9:55 PM -4.0 °F -12.4 °F -7.6 °F 85% 29.98 in 7.0 mi ESE 3.5 mph - N/A Snow Light Snow
10:15 PM -5.8 °F -14.5 °F -9.4 °F 84% 29.98 in 4.0 mi SE 3.5 mph - N/A Snow Light Snow
10:35 PM -4.0 °F -12.4 °F -7.6 °F 85% 29.98 in 10.0 mi South 3.5 mph - N/A Snow Light Snow